This demonstration page uses our WeatherBlox Daily Observations layout. Learn more.

Left ArrowRight Arrow

Hourly Observations for August 24, 2015

Temp ( °F °C ) Dew Point ( °F °C ) Humidity (%) Winds ( mph kmh ) Pressure ( in mb ) Visibility ( mi km ) Precip ( " mm )
12:53 am 00:53 Clear 74 23.3 54 12.2 50 50 Calm 29.92 1013 10 16 0.00 0.00
1:53 am 01:53 Clear 72 22.2 53 11.7 52 52 Calm 29.92 1013 10 16 0.00 0.00
2:53 am 02:53 Clear 70 21.1 53 11.7 55 55 Calm 29.92 1013 10 16 0.00 0.00
3:53 am 03:53 Clear 70 21.1 52 11.1 53 53 Calm 29.93 1013 10 16 0.00 0.00
4:53 am 04:53 Clear 66 18.9 53 11.7 63 63 W 3 6 29.94 1014 10 16 0.00 0.00
5:53 am 05:53 Clear 66 18.9 51 10.6 59 59 NNE 3 6 29.94 1014 10 16 0.00 0.00
6:53 am 06:53 Sunny 64 17.8 51 10.6 63 63 Calm 29.96 1015 10 16 0.00 0.00
7:53 am 07:53 Sunny 69 20.6 52 11.1 55 55 Calm 29.98 1015 10 16 0.00 0.00
8:53 am 08:53 Sunny 74 23.3 53 11.7 48 48 S 3 6 29.98 1015 10 16 0.00 0.00
9:53 am 09:53 Sunny 79 26.1 51 10.6 38 38 S 5 7 29.98 1015 10 16 0.00 0.00
10:53 am 10:53 Sunny 83 28.3 50 10 32 32 S 3 6 29.97 1015 10 16 0.00 0.00
11:53 am 11:53 Sunny 88 31.1 48 8.9 25 25 Calm 29.95 1014 10 16 0.00 0.00
12:53 pm 12:53 Sunny 91 32.8 47 8.3 22 22 SW 7 11 29.93 1014 10 16 0.00 0.00
1:53 pm 13:53 Sunny 94 34.4 46 7.8 19 19 SSW 7 11 29.91 1013 10 16 0.00 0.00
2:53 pm 14:53 Sunny 94 34.4 46 7.8 19 19 VRB 6 9 29.90 1012 10 16 0.00 0.00
3:53 pm 15:53 Sunny 97 36.1 43 6.1 16 16 SSW 9 15 29.88 1012 10 16 0.00 0.00
4:53 pm 16:53 Sunny 97 36.1 44 6.7 16 16 SSW 8 13 29.86 1011 10 16 0.00 0.00
5:53 pm 17:53 Sunny 96 35.6 43 6.1 16 16 S 10 17 29.85 1011 10 16 0.00 0.00
6:53 pm 18:53 Sunny 95 35 43 6.1 17 17 S 9 15 29.85 1011 10 16 0.00 0.00
7:53 pm 19:53 Sunny 90 32.2 47 8.3 23 23 S 7 11 29.85 1011 10 16 0.00 0.00
8:53 pm 20:53 Clear 85 29.4 47 8.3 27 27 Calm 29.87 1012 10 16 0.00 0.00
9:53 pm 21:53 Clear 83 28.3 47 8.3 28 28 SE 5 7 29.89 1012 10 16 0.00 0.00
10:53 pm 22:53 Clear 80 26.7 47 8.3 31 31 Calm 29.89 1012 10 16 0.00 0.00
11:53 pm 23:53 Clear 76 24.4 48 8.9 37 37 NNE 3 6 29.90 1012 10 16 0.00 0.00

Powered by AerisWeather